Flag for U.S.A. Weather past 2 weeks in Costa Mesa, California, U.S.A.

Now
56 °F

Clear.


Feels Like: 56 °F
Forecast: 58 / 81 °F
Wind: No wind

Location: John Wayne Airport-Orange County Airport

Current Time: Apr 27, 2015 at 5:37:38 AM

Latest Report: Apr 27, 2015 at 4:53 AM


Visibility: 10 mi

Pressure: 29.91 "Hg

Humidity: 75%

Dew point: 48 °F

Location of Costa MesaLocation

Historic Weather in Costa Mesa — Graph

°F

Costa Mesa temperature yesterday

Maximum temperature yesterday: 70 °F (at 2:53 PM)
Minimum temperature yesterday: 54 °F (at 2:53 AM)
Average temperature yesterday: 62 °F

Past Weeks' High & Low Weather Summary

 TemperatureHumidityPressure
High79 °F (Apr 17, 12:53 PM)94% (Apr 24, 9:58 AM)30.11 "Hg (Apr 24, 9:58 AM)
Low54 °F (Apr 26, 2:53 AM)6% (Apr 16, 10:53 AM)29.85 "Hg (Apr 20, 5:53 PM)
Average63 °F60%29.95 "Hg
* Reported Apr 12 3:53 AM — Apr 27 3:53 AM, Costa Mesa, Weather by CustomWeather, © 2015

Note: Actual official high and low records may vary slightly from our data, if they occured in-between our weather recording intervals... More about our weather records

Advertising

Costa Mesa weather history for previous 24 hours

 ConditionsComfort  
Time TempWeatherWind HumidityBarometerVisibility
3:53 AM
Mon, Apr 27
57 °FClear.No wind67%29.91 "Hg10 mi
2:53 AM58 °FClear.No wind62%29.90 "Hg10 mi
1:53 AM59 °FClear.3 mph64%29.92 "Hg10 mi
12:53 AM59 °FClear.No wind67%29.92 "Hg10 mi
11:53 PM
Sun, Apr 26
61 °FClear.No wind60%29.93 "Hg10 mi
10:53 PM62 °FClear.3 mph58%29.93 "Hg10 mi
9:53 PM62 °FPassing clouds.6 mph65%29.93 "Hg10 mi
8:53 PM62 °FPassing clouds.7 mph65%29.92 "Hg7 mi
7:53 PM63 °FScattered clouds.8 mph60%29.91 "Hg10 mi
6:53 PM65 °FPassing clouds.7 mph54%29.90 "Hg10 mi
5:53 PM68 °FScattered clouds.9 mph45%29.89 "Hg10 mi
4:53 PM69 °FScattered clouds.9 mph41%29.92 "Hg10 mi
3:53 PM69 °FScattered clouds.12 mph42%29.93 "Hg10 mi
2:53 PM70 °FPartly sunny.8 mph44%29.96 "Hg10 mi
1:53 PM69 °FPartly sunny.9 mph47%29.96 "Hg10 mi
12:53 PM69 °FBroken clouds.10 mph53%29.98 "Hg10 mi
11:53 AM69 °FBroken clouds.8 mph53%29.99 "Hg10 mi
10:53 AM66 °FScattered clouds.8 mph59%30.01 "Hg10 mi
9:53 AM65 °FBroken clouds.5 mph59%30.00 "Hg10 mi
8:53 AM62 °FBroken clouds.No wind65%29.99 "Hg10 mi
7:53 AM58 °FScattered clouds.5 mph72%29.99 "Hg10 mi
6:53 AM55 °FPassing clouds.No wind80%29.97 "Hg10 mi
5:53 AM54 °FClear.5 mph83%29.95 "Hg10 mi
Weather by CustomWeather, © 2015

See weather overviewHow to use our weather pages